TimeEDT,TemperatureF,Dew PointF,Humidity,Sea Level PressureIn,VisibilityMPH,Wind Direction,Wind SpeedMPH,Gust SpeedMPH,PrecipitationIn,Events,Conditions,WindDirDegrees,DateUTC
12:53 AM,75.0,62.1,64,30.08,10.0,SE,16.1,-,N/A,,Clear,140,2013-05-16 04:53:00
1:53 AM,73.9,64.0,71,30.07,10.0,SSE,15.0,-,N/A,,Clear,160,2013-05-16 05:53:00
2:53 AM,73.0,64.0,73,30.06,10.0,SSE,16.1,-,N/A,,Clear,160,2013-05-16 06:53:00
3:53 AM,72.0,64.9,78,30.04,10.0,SSE,18.4,-,N/A,,Clear,160,2013-05-16 07:53:00
4:53 AM,72.0,64.9,78,30.04,10.0,South,15.0,-,N/A,,Clear,170,2013-05-16 08:53:00
5:53 AM,71.1,64.0,78,30.04,10.0,South,13.8,-,N/A,,Clear,170,2013-05-16 09:53:00
6:53 AM,71.1,63.0,75,30.06,10.0,South,12.7,-,N/A,,Clear,170,2013-05-16 10:53:00
7:53 AM,73.0,62.1,68,30.09,10.0,South,13.8,-,N/A,,Clear,180,2013-05-16 11:53:00
8:53 AM,75.0,61.0,62,30.12,10.0,South,10.4,-,N/A,,Clear,170,2013-05-16 12:53:00
9:53 AM,77.0,61.0,58,30.12,10.0,South,8.1,-,N/A,,Clear,170,2013-05-16 13:53:00
10:53 AM,79.0,61.0,54,30.13,10.0,South,6.9,-,N/A,,Clear,190,2013-05-16 14:53:00
11:53 AM,80.1,60.1,50,30.13,10.0,SE,5.8,-,N/A,,Clear,140,2013-05-16 15:53:00
12:53 PM,81.0,60.1,49,30.11,10.0,SSE,5.8,-,N/A,,Clear,150,2013-05-16 16:53:00
1:53 PM,82.9,60.1,46,30.09,10.0,East,3.5,-,N/A,,Clear,90,2013-05-16 17:53:00
3:53 PM,87.1,59.0,39,30.04,10.0,ENE,3.5,-,N/A,,Clear,60,2013-05-16 19:53:00
4:53 PM,87.1,59.0,39,30.01,10.0,ENE,5.8,-,N/A,,Clear,60,2013-05-16 20:53:00
6:53 PM,82.0,66.0,58,30.00,10.0,West,10.4,-,N/A,,Clear,270,2013-05-16 22:53:00
7:53 PM,80.1,64.0,58,30.00,10.0,NNW,9.2,-,N/A,,Clear,340,2013-05-16 23:53:00
8:53 PM,79.0,64.9,62,30.02,10.0,NNW,6.9,-,N/A,,Clear,330,2013-05-17 00:53:00
9:53 PM,77.0,66.0,69,30.04,10.0,NNW,6.9,-,N/A,,Clear,330,2013-05-17 01:53:00
10:53 PM,77.0,66.9,71,30.06,10.0,NNW,6.9,-,N/A,,Clear,340,2013-05-17 02:53:00
11:53 PM,75.9,68.0,76,30.06,10.0,North,5.8,-,N/A,,Clear,10,2013-05-17 03:53:00